Location: *
(42.5400°N, 1.5000°E)
Time: 05:32:52
(UTC+00:00)

Daily predictions for brighter satellites

Satellite Brightness Start Highest point End
(mag) Time Altitude Azimuth Time Altitude Azimuth Time Altitude Azimuth
SL-16 R/B 4.4 00:53:22 24° NNE 00:53:22 24° NNE 00:55:58 10° N
CENTAUR R/B 3.8 01:59:00 33° E 01:59:00 33° E 02:03:43 10° NE
ADEOS II 3.9 01:53:31 10° NNE 01:56:26 27° NE 01:56:26 27° NE
Cosmos 2369 Rocket 3.6 02:07:32 35° ENE 02:07:32 35° ENE 02:11:17 10° NE
Lacrosse 5 4.2 02:08:52 17° N 02:09:44 18° NNE 02:13:07 10° NE
Resurs 1-4 Rocket 4.0 02:08:11 10° N 02:10:11 23° N 02:10:11 23° N
USA 238 DEB 4.0 02:21:37 57° N 02:21:37 57° N 02:27:21 10° NNE
USA 238 4.0 02:21:42 57° N 02:21:42 57° N 02:27:28 10° NNE
Atlas Centaur 2 4.4 02:29:29 19° SE 02:29:29 19° SE 02:31:55 10° ESE
Cosmos 2278 Rocket 4.5 02:32:51 13° NNW 02:32:51 13° NNW 02:34:24 10° NNW
ARIANE 5 R/B 3.5 02:33:36 10° NNE 02:36:58 42° NNE 02:36:58 42° NNE
Cosmos 1943 Rocket 2.5 02:49:36 57° N 02:49:36 57° N 02:54:04 10° NNE
Nadezhda 4 Rocket 3.8 02:52:13 87° ENE 02:52:13 87° ENE 02:58:18 10° N
CZ-2D R/B 4.0 02:48:00 10° N 02:49:53 19° NNW 02:49:53 19° NNW
NOSS 3-3 (A) 4.4 02:46:52 10° NW 02:54:26 68° WSW 03:02:41 10° SSE
NOSS 3-3 (C) 4.4 02:46:58 10° NW 02:54:33 68° WSW 03:02:47 10° SSE
Cosmos 2344 3.5 02:54:20 62° W 02:55:15 67° NW 03:03:26 10° NNE
NOSS 3-2 (A) 4.0 03:04:27 41° NW 03:04:28 41° NW 03:10:41 10° NNE
ATLAS 3B R/B 2.4 03:06:39 69° WSW 03:07:23 76° NW 03:14:01 10° NNE
NOSS 3-2 (C) 3.6 03:08:07 55° NW 03:08:17 56° NW 03:14:46 10° NNE
Lacrosse 5 rocket 3.3 03:11:37 22° SE 03:11:37 22° SE 03:13:14 10° SE
Cosmos 1400 Rocket 3.8 03:11:55 44° NE 03:11:55 44° NE 03:14:53 10° NNE
Unknown 4.5 03:17:37 45° NNE 03:17:37 45° NNE 03:20:51 10° NE
Cosmos 2263 4.0 03:17:41 70° W 03:17:56 71° WNW 03:23:34 10° NNE
Unknown 4.4 03:20:47 46° N 03:20:47 46° N 03:24:09 10° NE
Unknown 4.4 03:22:24 46° N 03:22:24 46° N 03:25:49 10° NE
IDEFIX/ARIANE 42P 3.4 03:18:25 10° NNE 03:23:32 48° E 03:27:32 16° S
Unknown 4.4 03:24:10 44° N 03:24:10 44° N 03:27:38 10° NE
Unknown 4.4 03:25:26 42° N 03:25:26 42° N 03:28:51 10° NE
Unknown 4.3 03:25:36 46° N 03:25:36 46° N 03:29:08 10° NE
H-2A R/B 3.9 03:22:55 10° NE 03:26:22 31° E 03:28:28 19° SSE
Cosmos 1862 Rocket 4.2 03:24:46 33° SSE 03:26:28 55° E 03:30:52 10° NNE
Unknown 4.3 03:27:10 45° N 03:27:10 45° N 03:30:46 10° NE
Iridium 4 Rocket 3.2 03:26:11 54° SSE 03:27:06 74° E 03:31:22 10° N
Unknown 4.3 03:30:23 45° NNW 03:30:23 45° NNW 03:34:06 10° NE
Cosmos 2026 Rocket 4.1 03:26:46 22° S 03:31:04 80° E 03:37:27 10° N
Unknown 4.3 03:31:59 44° NNW 03:31:59 44° NNW 03:35:46 10° NE
Unknown 4.3 03:33:35 43° NNW 03:33:35 43° NNW 03:37:25 10° NE
Unknown 4.3 03:35:11 42° NNW 03:35:11 42° NNW 03:39:05 10° NE
CZ-2C R/B 4.0 03:32:58 10° N 03:35:23 30° NNW 03:35:23 30° NNW
Timation 2 Rocket 4.1 03:31:31 10° NNW 03:37:33 70° ENE 03:43:29 10° SE
ADEOS II 3.1 03:33:25 10° N 03:37:22 29° NW 03:37:22 29° NW
Cosmos 1346 Rocket 4.4 03:34:10 10° N 03:38:00 37° ENE 03:41:49 10° SE
Unknown 4.3 03:38:23 40° NNW 03:38:28 40° NNW 03:42:24 10° NE
Unknown 4.4 03:41:58 37° NW 03:42:13 38° NNW 03:46:07 10° NE
Cosmos 1656 Rocket 3.6 03:41:58 43° SW 03:43:53 73° WNW 03:49:33 10° NNE
Unknown 4.4 03:44:45 36° NW 03:45:08 37° NNW 03:49:01 10° NE
CENTAUR R/B 3.0 03:46:12 36° W 03:48:11 46° NW 03:54:58 10° NNE
Unknown 4.5 03:47:57 34° NW 03:48:29 36° NNW 03:52:21 10° NE
Cosmos 2369 Rocket 3.1 03:49:20 29° WNW 03:50:05 30° NW 03:55:05 10° N
MSX 4.4 03:45:01 10° NNE 03:50:42 58° E 03:56:19 10° S
Cosmos 2195 Rocket 4.5 03:47:19 27° SSW 03:50:46 63° W 03:57:00 10° N
CZ-2C R/B 3.9 03:47:08 10° NNE 03:51:41 36° E 03:56:19 10° SSE
Lacrosse 5 3.0 03:49:02 10° NW 03:53:52 43° NE 03:58:40 10° ESE
Cosmos 1538 Rocket 4.3 03:52:06 13° S 03:56:36 65° ESE 04:01:43 10° NNE
Cosmos 44 3.7 03:55:43 38° W 03:56:52 45° NW 04:01:30 10° NNE
PSLV R/B 3.8 03:53:04 10° S 03:57:13 76° WSW 04:01:21 10° NNW
Cosmos 1908 Rocket 4.3 03:53:29 10° N 03:57:44 52° E 04:01:58 10° SSE
Cosmos 1833 4.2 03:54:41 10° NW 04:00:08 52° WSW 04:05:32 10° S
S3M 4.5 03:54:21 10° N 04:00:30 63° E 04:06:41 10° SSE
Cosmos 1500 3.0 03:57:35 10° N 04:01:21 89° E 04:05:06 10° S
PSLV R/B 3.5 04:00:19 10° N 04:04:40 64° WNW 04:07:00 26° SSW
Cosmos 1428 Rocket 4.5 03:59:48 13° SSW 04:05:33 66° W 04:11:49 10° N
Cosmos 1733 Rocket 3.3 04:02:21 10° NNW 04:06:38 47° W 04:10:07 15° SSW
SeaSat 1 2.4 04:05:34 10° NNE 04:10:31 79° WNW 04:14:09 18° SSW
Atlas Centaur 2 3.9 04:12:06 19° SW 04:14:43 24° SSW 04:20:34 10° SE
Meteor 1-27 Rocket 3.7 04:09:44 10° SSW 04:15:36 70° W 04:21:24 10° N
ARIANE 5 R/B 4.4 04:14:45 10° NNW 04:17:06 13° WNW 04:17:18 13° WNW
SL-4 R/B 1.6 04:17:01 30° WNW 04:18:33 60° SW 04:22:09 10° SE
ADEOS 3.9 04:16:33 10° N 04:21:32 46° WNW 04:25:28 16° SW
COSMOS 2441 4.3 04:18:49 10° N 04:23:43 80° WNW 04:28:36 10° SSW
Cosmos 1812 3.2 04:23:31 22° SW 04:25:30 40° WNW 04:29:10 10° N
CZ-4B R/B 4.1 04:22:26 10° NNE 04:26:05 62° E 04:29:41 10° S
ATLAS CENTAUR R/B 4.3 04:24:52 10° N 04:27:35 16° NE 04:30:12 10° ENE
PAYLOAD A 3.7 04:24:27 10° N 04:29:13 79° WNW 04:33:52 10° SSW
DELTA 2 R/B(2) 4.5 04:29:14 23° S 04:29:16 23° SSE 04:30:51 10° ESE
Cosmos 1315 Rocket 3.2 04:27:31 15° SW 04:30:38 43° WNW 04:34:37 10° N
Meteor 1-11 Rocket 3.9 04:26:38 10° NNW 04:31:56 45° W 04:37:09 10° SSW
Cosmos 1943 Rocket 4.0 04:31:09 12° WNW 04:33:12 14° NW 04:36:02 10° NNW
BREEZE-M DEB (TANK) 3.4 04:29:35 13° W 04:37:55 59° N 04:41:10 10° ENE
Cosmos 2266 Rocket 4.0 04:32:08 10° S 04:38:15 86° E 04:44:19 10° N
Shenzhou-11 Module 4.2 04:38:11 10° SSW 04:40:03 17° SSE 04:41:55 10° ESE
Cosmos 1782 Rocket 3.6 04:36:13 10° N 04:40:37 87° ENE 04:45:01 10° S
USA 215 3.3 04:34:54 10° NE 04:41:28 85° SE 04:48:02 10° SW
Lacrosse 5 rocket 3.3 04:47:25 13° WSW 04:47:30 13° WSW 04:49:23 10° SW
Cosmos 1703 Rocket 3.8 04:47:59 10° SSW 04:52:16 48° WNW 04:56:34 10° N
Meteor PRIRODA 3.6 04:49:15 10° NNE 04:52:57 88° W 04:56:39 10° SSW
Aureole 2 Rocket 3.8 04:52:24 13° WNW 04:53:02 14° WNW 04:54:32 10° NNW
Cosmos 2292 Rocket 4.2 04:48:17 10° S 04:53:37 67° E 04:57:37 10° NNE
Cosmos 1666 2.8 04:52:26 10° NNW 04:56:06 50° W 04:59:45 10° S
PSLV R/B 3.8 04:52:06 10° NNE 04:56:09 89° ESE 05:00:04 10° SSW
Sich 1 Rocket 3.5 04:52:13 10° N 04:56:42 78° W 05:01:10 10° S
Meteor 1-31 Rocket 3.0 04:54:06 10° N 04:57:54 49° WNW 05:01:39 10° SSW
BREEZE-M DEB (TANK) 3.6 04:55:05 10° W 04:58:49 28° NNW 05:01:01 10° NE
ATLAS 3B R/B 4.1 04:54:14 10° W 04:59:09 21° NNW 05:04:05 10° NNE
Cosmos 1340 3.8 04:57:04 10° NW 05:00:04 22° W 05:03:02 10° SW
Okean 1 3.3 04:56:16 10° S 05:00:13 90° N 05:04:13 10° N
Cosmos 2221 Rocket 3.8 04:55:54 10° S 05:00:18 76° E 05:04:44 10° NNE
Cosmos 2112 Rocket 4.4 04:55:20 10° S 05:00:34 69° ESE 05:05:47 10° NNE
H-2A R/B 3.8 04:58:56 10° NNW 05:01:40 19° WNW 05:04:24 10° WSW
IDEFIX/ARIANE 42P 3.8 04:58:42 10° NNW 05:02:47 23° WNW 05:06:52 10° WSW
OAO 2 Rocket 4.4 05:01:28 10° SW 05:05:50 32° S 05:10:12 10° ESE
Cosmos 1975 3.4 05:02:21 10° N 05:06:24 64° E 05:10:27 10° SSE
Helios 1A Rocket 3.3 05:03:30 10° NNE 05:07:34 68° ESE 05:11:39 10° S
CZ-4B R/B 4.1 05:05:40 10° NNE 05:11:06 55° E 05:16:23 10° S
Cosmos 2315 Rocket 4.0 05:05:58 10° N 05:12:11 79° W 05:18:23 10° S
Meteor 1-18 Rocket 4.2 05:06:42 10° SSW 05:12:17 83° W 05:18:00 10° N
Cosmos 1536 4.3 05:10:51 10° NW 05:13:30 17° W 05:16:09 10° SW
BREEZE-M DEB (TANK) 3.9 05:05:06 10° SW 05:13:34 43° SSE 05:16:36 10° ENE
Cosmos 1346 Rocket 4.4 05:11:25 10° NW 05:14:02 17° W 05:16:39 10° SW
USA 267 3.9 05:08:48 10° ESE 05:15:12 60° NNE 05:21:38 10° NW
SJ-12 4.1 05:11:27 10° NNE 05:15:32 79° ESE 05:19:35 10° S
